Regional Weather Roundup
Issued by NWS Goodland, KS

Home | Current Version | Previous Version | Graphics & Text | Print | Product List | Glossary On
Versions: 1 2 3 4 5 6 7 8 9 10 11 12 13 14 15 16 17 18 19 20 21 22 23 24 25 26 27 28 29 30 31 32 33 34 35 36 37 38 39 40 41 42 43 44 45 46 47 48 49 50
000
ASUS43 KGLD 301259
RWRGLD

GOODLAND FORECAST AREA HOURLY WEATHER ROUNDUP
NATIONAL WEATHER SERVICE GOODLAND KS
700 AM MDT SUN AUG 30 2015

...OFFICIAL OBSERVATIONS...

CITY           SKY/WX    TMP DP  RH WIND       PRES   REMARKS
GOODLAND KS    PTCLDY    62  48  60 S12       30.09R
HILL CITY KS   FOG       54  54 100 CALM      30.07R VSB<1/4
IMPERIAL NEB   PTCLDY    58  47  66 CALM      30.04S
MCCOOK NEB     CLEAR     55  50  83 CALM      30.05R
AKRON CO       CLEAR     65  45  48 S12       30.07S
BURLINGTON CO  CLEAR     61  46  57 S10       30.11R
LIMON CO       CLEAR     46  44  93 CALM      30.16R
$$

...UNOFFICIAL OBSERVATIONS...

CITY           SKY/WX    TMP DP  RH WIND       PRES   REMARKS
COLBY KS       CLEAR     55  52  88 SW6       30.09S
GOVE KS          N/A     49  32  52 MISG        N/A
LENORA KS        N/A     58  32  37 MISG        N/A
NORTON KS      CLEAR     54  50  87 CALM      30.05R
SHARON SPRINGS   N/A     59  50  71 S10         N/A
YUMA CO          N/A     64  47  54 SW13        N/A
$$



USA.gov is the U.S. government's official web portal to all federal, state and local government web resources and services.